Wind_Speed
15 15 15 15 16 17 18 19 19 20 20 18 18 18 18 17 17 17 16 16 16 17 16 16 17 18 19 17 17 17 17 16 17 18 17 17 17 17 18 18 19 19 19
17 14 15 17 17 18 16 16 17 19 19 19 19 20 20 20 19 18 18 18 18 19 18 17 17 18 18 18 18 18 17 18 18 18 18 17 18 17 18 17 18 19 20
16 15 16 17 19 20 19 18 18 18 19 20 20 20 21 22 22 21 21 21 21 21 20 19 19 19 18 19 19 19 19 18 19 19 19 19 19 19 19 20 20 21 21
16 15 15 15 15 19 20 19 19 18 19 20 21 21 21 22 23 24 23 23 23 23 22 20 20 20 20 19 19 19 19 19 19 20 19 18 18 19 20 22 24 24 24
18 17 16 16 17 17 18 19 19 20 19 20 21 21 22 22 23 24 24 23 22 22 23 22 22 22 21 20 19 18 17 18 19 19 20 21 20 21 23 24 25 25 25
21 20 19 19 19 19 19 19 19 20 21 21 20 22 22 22 22 22 23 22 22 22 23 23 23 24 23 21 21 20 19 20 21 20 19 18 20 22 25 28 29 28 27
25 23 22 21 20 20 20 19 19 19 20 21 22 23 23 24 23 23 23 24 22 22 22 22 23 23 23 22 22 20 20 19 20 18 18 20 21 24 25 26 28 29 30
28 27 26 23 22 22 21 20 18 17 17 17 18 19 20 21 23 24 23 23 23 22 21 20 21 22 22 22 21 20 20 20 20 21 22 23 24 25 26 26 26 26 26
30 28 27 27 25 23 22 21 20 20 19 17 18 18 18 19 19 20 21 21 21 21 21 20 20 20 22 22 22 22 22 22 23 23 24 25 27 28 28 27 25 22 21
30 29 30 29 26 24 24 22 22 21 21 20 19 18 18 17 17 19 19 18 19 19 20 21 21 22 22 22 24 24 25 26 26 27 27 27 28 29 29 28 28 26 25
32 32 31 29 28 28 26 25 25 24 23 22 21 21 19 18 18 19 19 19 18 18 19 20 21 22 23 24 25 27 28 30 31 32 32 32 32 32 32 29 29 28 28
31 33 33 32 31 30 28 27 27 27 26 25 25 24 24 23 21 21 21 22 21 20 20 20 21 21 23 24 27 30 31 33 35 37 38 37 37 36 34 33 31 29 29
31 31 32 33 32 31 29 30 30 30 30 29 28 28 27 27 25 24 23 23 24 23 25 25 24 24 24 25 26 28 31 34 38 39 40 41 40 39 37 36 34 32 31
29 28 28 29 29 30 31 31 32 33 32 31 31 30 29 29 28 27 27 28 26 25 26 25 25 27 28 27 28 28 30 30 32 34 36 38 39 38 39 38 37 35 33
28 27 27 29 28 28 28 30 30 32 33 33 32 31 30 31 31 29 29 30 29 26 25 28 29 29 28 28 27 28 29 31 32 33 34 34 35 35 35 35 34 35 34
31 31 33 32 31 31 30 30 31 31 32 31 29 29 30 31 31 30 30 30 29 28 28 26 28 27 27 27 27 28 29 32 34 34 33 33 34 34 32 31 31 31 32
32 34 35 34 35 33 33 33 32 32 32 30 28 27 29 29 28 29 30 30 30 29 28 28 28 27 27 27 26 28 30 32 34 35 34 33 34 34 32 30 30 30 31
33 34 36 37 37 34 34 36 34 33 33 30 28 27 26 27 28 30 30 29 29 29 30 30 30 29 29 29 30 30 31 33 33 34 34 34 33 34 34 32 30 31 32
35 38 38 38 38 36 36 38 39 35 32 31 29 27 25 26 28 31 30 30 30 31 31 31 31 32 32 33 35 35 35 35 35 35 34 34 34 34 34 36 37 37 39
36 40 42 40 39 38 39 40 40 37 35 33 32 29 28 29 30 31 30 32 33 34 34 35 36 37 39 40 39 39 39 37 37 36 35 34 35 35 34 35 38 40 42
38 41 43 44 43 40 39 40 40 40 39 38 38 33 31 33 33 33 33 33 34 34 33 35 37 37 36 35 34 35 35 35 35 35 35 35 36 37 37 38 39 40 41
42 41 45 46 46 45 43 41 42 42 43 42 40 39 35 35 35 38 37 36 36 34 33 33 35 35 33 33 33 34 34 34 35 35 35 37 38 40 41 42 42 43 44
46 45 45 47 49 49 49 47 44 44 44 44 43 40 38 39 41 42 40 37 37 35 35 36 36 37 35 34 34 35 36 36 37 37 37 39 40 40 41 42 42 43 44
49 50 49 50 49 51 53 52 50 47 44 44 44 45 43 43 45 44 43 42 41 36 36 37 38 38 38 37 37 37 36 37 39 40 40 40 42 42 43 42 42 43 44
49 50 49 49 49 49 52 54 55 53 48 45 45 43 45 45 47 47 48 48 47 44 40 40 40 40 39 41 40 40 38 38 39 40 41 43 43 44 44 44 45 46 46
48 50 52 53 53 54 53 54 56 57 54 49 47 44 41 45 47 49 49 49 50 49 46 46 44 43 42 42 42 42 40 40 41 42 43 44 45 46 47 48 49 50 52
Wind_Direction
266 269 272 276 272 270 268 268 267 267 267 270 267 265 267 270 273 276 282 286 288 288 289 289 285 281 279 283 283 282 281 280 278 279 282 283 281 280 281 280 280 283 284
262 265 272 274 272 275 273 269 268 268 271 270 266 262 260 262 264 267 271 275 281 283 282 279 274 273 274 276 278 279 280 280 280 279 279 278 277 277 279 281 283 285 289
259 262 265 263 265 268 271 276 277 274 274 275 275 273 267 265 266 266 269 272 274 274 274 271 270 266 266 268 272 276 278 280 280 281 281 282 283 284 284 285 286 286 287
259 260 262 263 269 269 270 270 270 272 274 275 277 277 278 276 275 275 274 276 278 277 275 271 267 263 263 266 268 271 274 274 274 275 277 281 286 288 290 290 289 288 287
259 261 265 269 271 273 276 279 281 280 277 276 280 279 279 279 279 279 278 278 279 281 280 275 269 265 263 264 266 267 267 267 270 275 280 283 285 290 293 292 291 290 289
253 255 257 259 263 269 275 277 281 284 286 286 287 288 289 288 282 279 278 278 279 279 279 277 274 269 265 263 262 263 264 269 273 277 277 283 292 296 297 295 290 287 285
251 253 256 258 263 267 271 277 279 281 286 289 290 288 285 283 285 285 285 282 279 280 279 277 275 273 271 268 268 266 267 269 271 270 275 288 295 300 303 302 297 288 283
252 255 257 260 261 263 266 271 275 281 281 282 285 284 284 284 283 284 285 287 284 281 281 279 277 275 273 272 271 270 269 267 265 269 275 287 294 300 307 308 304 300 290
252 255 258 259 261 264 267 271 271 272 275 278 284 288 289 288 285 285 283 282 279 278 277 276 277 276 276 275 273 269 263 259 261 268 276 286 292 297 301 306 300 304 300
255 254 256 257 260 263 265 267 269 269 273 277 281 284 286 286 290 286 284 284 286 283 279 277 274 275 273 273 272 266 262 259 262 268 273 279 285 289 293 295 300 294 294
251 250 251 252 254 256 260 264 267 270 272 275 276 282 283 285 284 283 285 286 287 285 283 281 278 276 275 273 270 268 265 264 266 270 273 277 279 282 284 288 292 292 287
254 253 253 254 254 257 260 263 267 271 272 274 276 277 283 287 288 287 285 282 279 279 280 281 284 284 282 279 274 271 270 269 270 272 274 276 278 278 280 282 284 285 286
256 261 262 260 259 261 262 262 264 266 268 270 273 277 278 277 280 285 288 285 281 277 279 281 282 284 285 286 283 281 278 274 273 274 276 278 278 279 278 278 280 282 285
249 257 262 263 261 258 260 262 263 266 268 269 268 269 271 272 275 280 286 286 286 281 280 279 287 288 287 287 285 284 283 282 281 281 280 280 281 280 278 276 276 278 281
243 247 254 256 257 256 256 258 262 264 266 266 267 267 266 268 272 276 280 282 286 286 280 277 285 285 285 285 282 283 284 284 285 284 284 285 285 284 282 280 277 277 281
242 241 245 248 251 253 253 255 257 260 263 266 268 268 268 268 268 271 273 276 280 283 285 282 282 284 286 286 286 286 285 286 286 287 288 287 287 285 284 283 281 281 280
245 243 245 249 252 256 256 258 260 262 264 266 267 269 270 271 269 268 270 275 278 282 283 284 283 284 289 292 292 291 290 289 290 288 287 288 287 283 282 282 282 281 279
253 249 246 249 252 252 255 258 258 259 263 268 269 268 270 271 267 266 267 271 276 278 279 282 282 284 286 288 288 289 292 294 293 292 288 288 291 286 279 280 280 280 281
250 252 252 249 250 250 250 255 256 257 260 262 263 263 265 265 263 261 266 269 270 272 275 277 280 281 284 286 286 288 290 291 294 294 290 287 289 291 285 279 278 278 280
247 252 253 252 251 248 248 250 256 257 258 259 259 254 255 259 266 267 267 267 266 267 270 275 278 280 282 284 285 286 288 288 290 291 290 288 287 288 289 286 283 283 283
245 247 252 252 252 251 248 249 251 254 254 254 256 252 251 256 261 264 264 266 266 268 272 274 277 279 282 285 286 287 288 289 290 290 290 292 291 290 288 286 285 285 286
248 245 247 250 250 249 248 247 248 249 251 254 254 256 254 256 262 263 262 263 266 270 272 273 277 280 285 288 288 288 288 289 290 292 293 291 289 289 288 289 289 289 290
251 251 250 249 251 249 249 250 250 251 251 255 258 257 256 255 256 260 263 264 265 268 270 274 275 279 283 287 290 289 287 288 291 295 295 295 294 293 293 294 293 292 291
256 257 256 255 253 253 252 251 252 253 251 251 252 255 257 257 260 261 263 264 265 263 270 272 275 277 281 283 285 287 288 289 290 291 292 293 293 294 294 294 294 293 292
258 258 258 259 258 256 255 252 253 253 251 249 253 253 259 261 262 264 264 265 267 269 268 273 274 277 278 281 283 285 289 291 290 290 291 292 293 294 294 294 294 294 293
259 258 258 257 256 253 251 250 249 250 249 249 250 254 256 260 262 265 267 266 267 268 269 271 273 278 277 279 281 283 286 289 289 289 290 291 294 295 294 293 294 295 296
Height
5862 5862 5863 5863 5864 5863 5865 5865 5865 5866 5866 5867 5867 5867 5868 5869 5870 5870 5871 5871 5870 5869 5869 5869 5869 5868 5868 5869 5869 5869 5868 5867 5867 5867 5866 5865 5865 5864 5863 5863 5862 5861 5861
5859 5860 5861 5861 5862 5862 5863 5863 5863 5864 5864 5864 5864 5864 5865 5866 5866 5866 5868 5868 5868 5867 5867 5867 5866 5866 5865 5865 5865 5865 5865 5865 5865 5864 5864 5863 5862 5861 5861 5859 5859 5858 5857
5857 5858 5859 5859 5858 5859 5860 5861 5862 5861 5862 5861 5862 5862 5862 5862 5863 5863 5863 5864 5864 5864 5864 5864 5864 5864 5863 5863 5862 5862 5862 5863 5861 5861 5860 5860 5859 5859 5857 5856 5855 5855 5854
5854 5855 5855 5856 5856 5856 5857 5858 5858 5858 5859 5859 5859 5859 5859 5859 5860 5860 5860 5861 5861 5861 5860 5861 5860 5860 5860 5860 5860 5860 5859 5858 5857 5857 5857 5856 5856 5855 5854 5853 5853 5852 5851
5850 5851 5852 5852 5852 5853 5853 5854 5855 5856 5856 5856 5856 5856 5856 5856 5856 5857 5857 5857 5858 5858 5857 5857 5857 5857 5857 5857 5856 5856 5856 5855 5854 5854 5854 5854 5852 5852 5851 5850 5849 5848 5847
5848 5848 5849 5849 5850 5851 5851 5852 5852 5852 5852 5853 5853 5853 5853 5853 5853 5853 5853 5853 5854 5854 5854 5854 5854 5854 5854 5853 5853 5853 5852 5852 5852 5851 5850 5850 5849 5848 5846 5845 5844 5843 5842
5843 5844 5845 5846 5848 5849 5849 5849 5850 5849 5849 5849 5850 5850 5850 5850 5850 5850 5850 5850 5850 5850 5850 5850 5850 5851 5851 5851 5850 5850 5849 5848 5848 5848 5847 5847 5846 5844 5843 5841 5839 5838 5838
5840 5841 5841 5843 5844 5844 5845 5846 5847 5847 5847 5847 5846 5846 5846 5847 5847 5847 5846 5846 5846 5846 5846 5847 5846 5847 5847 5847 5846 5846 5846 5846 5845 5845 5845 5843 5842 5840 5840 5838 5835 5833 5832
5836 5837 5838 5838 5839 5840 5841 5841 5842 5843 5843 5843 5843 5844 5844 5844 5844 5844 5844 5843 5843 5842 5842 5842 5842 5842 5843 5842 5842 5842 5841 5841 5841 5841 5840 5839 5838 5836 5836 5835 5833 5831 5829
5831 5832 5833 5834 5835 5836 5836 5837 5838 5839 5839 5840 5840 5840 5840 5840 5840 5841 5840 5839 5839 5839 5838 5838 5838 5838 5838 5838 5838 5837 5837 5837 5836 5837 5836 5835 5834 5833 5831 5830 5830 5827 5826
5826 5826 5828 5829 5830 5830 5832 5833 5834 5834 5835 5836 5836 5836 5836 5836 5836 5836 5836 5836 5835 5835 5835 5834 5834 5834 5834 5834 5833 5832 5832 5832 5831 5831 5830 5829 5828 5827 5827 5825 5825 5823 5821
5822 5821 5822 5824 5825 5826 5827 5828 5829 5830 5830 5831 5831 5832 5833 5833 5833 5833 5832 5831 5831 5830 5830 5830 5830 5829 5830 5830 5828 5828 5827 5826 5826 5825 5824 5823 5822 5821 5820 5819 5819 5817 5816
5817 5818 5819 5819 5820 5821 5823 5823 5824 5825 5826 5827 5828 5828 5828 5828 5828 5828 5828 5828 5827 5827 5826 5826 5825 5825 5825 5825 5823 5822 5821 5820 5819 5818 5817 5816 5815 5814 5813 5812 5812 5811 5810
5811 5813 5814 5815 5815 5816 5817 5819 5819 5820 5821 5822 5822 5823 5823 5823 5823 5823 5823 5821 5822 5822 5821 5821 5821 5820 5820 5819 5818 5816 5815 5813 5812 5811 5810 5809 5808 5806 5805 5805 5804 5804 5803
5807 5807 5808 5809 5811 5811 5811 5813 5813 5814 5814 5815 5816 5818 5818 5817 5817 5817 5817 5816 5816 5816 5816 5816 5815 5814 5813 5813 5812 5811 5809 5808 5806 5805 5803 5802 5801 5799 5798 5797 5797 5797 5797
5800 5802 5801 5803 5804 5804 5806 5806 5807 5807 5807 5808 5810 5811 5811 5811 5811 5811 5810 5810 5810 5810 5810 5809 5809 5808 5807 5807 5806 5805 5803 5802 5800 5798 5797 5795 5794 5793 5792 5791 5790 5790 5790
5794 5795 5796 5797 5797 5799 5800 5800 5801 5800 5800 5801 5803 5804 5804 5804 5805 5805 5804 5805 5805 5804 5804 5804 5803 5803 5802 5801 5800 5798 5797 5795 5794 5792 5790 5789 5787 5787 5786 5785 5784 5784 5783
5784 5787 5789 5789 5790 5792 5794 5794 5794 5794 5794 5795 5797 5798 5798 5798 5798 5798 5798 5799 5799 5799 5798 5798 5797 5796 5795 5794 5793 5792 5791 5789 5787 5785 5784 5782 5781 5779 5779 5778 5778 5777 5776
5776 5777 5778 5781 5782 5784 5785 5785 5785 5787 5788 5789 5790 5792 5793 5792 5791 5791 5792 5793 5792 5792 5792 5791 5790 5790 5788 5787 5786 5785 5783 5781 5780 5778 5776 5774 5773 5772 5771 5770 5770 5769 5768
5769 5769 5770 5771 5774 5776 5778 5778 5778 5781 5783 5783 5783 5785 5785 5785 5785 5784 5786 5786 5786 5785 5786 5785 5783 5783 5782 5780 5778 5777 5775 5773 5772 5770 5768 5766 5765 5763 5762 5761 5760 5759 5758
5761 5762 5762 5763 5765 5767 5770 5771 5771 5773 5775 5775 5775 5777 5779 5778 5779 5778 5779 5779 5779 5778 5778 5777 5776 5775 5774 5772 5770 5769 5768 5766 5763 5762 5760 5758 5757 5755 5754 5752 5751 5750 5748
5752 5754 5754 5755 5755 5756 5759 5761 5763 5763 5765 5767 5769 5770 5772 5773 5772 5771 5771 5772 5772 5771 5771 5770 5769 5767 5766 5764 5763 5762 5760 5759 5756 5754 5751 5749 5748 5746 5744 5743 5742 5740 5737
5743 5744 5745 5746 5745 5747 5749 5751 5753 5754 5756 5758 5760 5763 5764 5762 5762 5762 5763 5764 5765 5764 5763 5762 5761 5760 5758 5757 5755 5754 5752 5751 5748 5746 5744 5741 5739 5737 5735 5734 5732 5730 5727
5732 5732 5733 5735 5736 5737 5738 5741 5742 5744 5746 5748 5750 5749 5752 5752 5752 5754 5754 5755 5754 5754 5754 5754 5753 5752 5750 5749 5748 5746 5744 5743 5740 5738 5735 5732 5730 5727 5725 5722 5721 5719 5716
5721 5722 5722 5723 5725 5726 5728 5730 5730 5732 5735 5737 5738 5740 5741 5742 5743 5744 5745 5745 5744 5745 5744 5745 5745 5744 5742 5740 5739 5738 5736 5733 5731 5729 5726 5724 5721 5717 5714 5711 5709 5707 5704
5709 5709 5709 5711 5711 5712 5714 5716 5719 5719 5723 5725 5727 5729 5731 5731 5731 5732 5734 5735 5735 5735 5736 5734 5735 5735 5734 5732 5730 5729 5727 5725 5722 5720 5716 5714 5711 5708 5704 5700 5697 5694 5691